User: anonymous   Login
Location: CNYAC Observatory
(43.2150°N, 74.9500°W)
Time: 14:57:24
(UTC-04:00)
Language:

Meteor 1-22 Rocket - Orbit

View from above orbital plane
View from above orbital plane
View from above satellite
View from above satellite

Ground track
Ground track

The orbit data is extracted from the following two-line orbital elements,

1 08294U 75087B   14298.01489531  .00000219  00000-0  11480-3 0  1042
2 08294 081.2184 244.2475 0105687 246.7096 184.5194 14.08500186  8843
Epoch (UTC): 25 October 2014 00:21:26
Eccentricity: 0.0105687
inclination: 81.2184°
perigee height: 788 km
apogee height: 941 km
right ascension of ascending node: 244.2475°
argument of perigee: 246.7096°
revolutions per day: 14.08500186
mean anomaly at epoch: 184.5194°
orbit number at epoch: 884

The dashed part of the orbit path shows where the satellite is in the earth's shadow,  

DLR